Tracking 19293 objects as of 21-Nov-2018
HD Live streaming from Space Station
objects crossing your sky now

GSTAR 1

Track GSTAR 1 now!
GSTAR 1 is classified as:


NORAD ID: 15677
Int'l Code: 1985-035A
Perigee: 35,771.0 km
Apogee: 35,816.0 km
Inclination: 15.0 °
Period: 1,436.1 minutes
Semi major axis: 42164 km
RCS: 1.6993 m2 (large)
Launch date: May 8, 1985
Source: United States (US)
Launch site: FRENCH GUIANA (FRGUI)
aabbcc
Your satellite tracking list
Your tracking list is empty




NASA's NSSDC Master Catalog

Two Line Element Set (TLE):
1 15677U 85035A   18323.22386573 -.00000102 +00000-0 +00000-0 0  9994
2 15677 014.9951 011.9588 0005341 343.2318 038.0985 01.00272551097468
Source of the keplerian elements: AFSPC